Flag for Western Sahara Weather past 2 weeks in Smara, Western Sahara

Now
82 °F

Warm.


Feels Like: 84 °F
Forecast: N/A
Wind: 14 mph from North

Location: Laayoune/Hassan Isl

Current Time: Oct 21, 2014 at 6:30:26 PM

Latest Report: Oct 21, 2014 at 6:00 PM


Visibility: N/A

Pressure: 30.04 "Hg

Humidity: 55%

Dew point: 64 °F

Location of SmaraLocation

Historic Weather in Smara — Graph

°F

Smara temperature yesterday

Maximum temperature yesterday: 82 °F (at 3:00 PM)
Minimum temperature yesterday: 66 °F (at 8:00 AM)
Average temperature yesterday: 73 °F

Past Weeks' High & Low Weather Summary

 TemperatureHumidityPressure
High97 °F (Oct 21, 2:00 PM)100% (Oct 8, 7:00 PM)30.09 "Hg (Oct 8, 7:00 PM)
Low45 °F (Oct 8, 7:00 PM)18% (Oct 21, 2:00 PM)29.83 "Hg (Oct 19, 2:00 PM)
Average72 °F74%30.00 "Hg
* Reported Oct 6 5:00 PM — Oct 21 5:00 PM, Smara, Weather by CustomWeather, © 2014

Note: Actual official high and low records may vary slightly from our data, if they occured in-between our weather recording intervals... More about our weather records

Advertising

Smara weather history for previous 24 hours

 ConditionsComfort  
Time TempWeatherWind HumidityBarometerVisibility
5:00 PM
Oct 21
90 °FHot.15 mph41%N/AN/A
4:00 PM90 °FHot.16 mph43%30.04 "HgN/A
3:00 PM95 °FExtremely hot.12 mph32%30.04 "HgN/A
2:00 PM97 °FExtremely hot.6 mph18%30.04 "HgN/A
1:00 PM95 °FExtremely hot.6 mph20%30.07 "HgN/A
12:29 PM91 °FHot.6 mph30%30.07 "HgN/A
12:00 PM88 °FPleasantly warm.7 mph35%30.07 "HgN/A
11:36 AM84 °FWarm.12 mph45%30.07 "HgN/A
11:00 AM81 °FWarm.12 mph54%30.07 "HgN/A
10:26 AM77 °FWarm.9 mph65%30.07 "HgN/A
10:00 AM73 °FMild.14 mph78%30.07 "HgN/A
9:00 AM72 °FMild.8 mph88%30.04 "HgN/A
8:00 AM72 °FPassing clouds.17 mph88%30.01 "HgN/A
7:00 AM72 °FClear.10 mph88%30.01 "Hg5 mi
6:00 AM72 °FMostly cloudy.10 mph83%30.01 "HgN/A
5:00 AM72 °FOvercast.7 mph78%30.01 "HgN/A
4:00 AM72 °FMostly cloudy.6 mph73%30.01 "HgN/A
3:00 AM72 °FClear.8 mph73%30.01 "Hg5 mi
2:00 AM72 °FOvercast.7 mph73%30.01 "HgN/A
1:00 AM73 °FClear.7 mph69%30.01 "Hg5 mi
12:00 AM73 °FOvercast.8 mph65%30.04 "HgN/A
11:00 PM
Oct 20
73 °FOvercast.7 mph69%30.04 "HgN/A
10:00 PM73 °FClear.7 mph74%30.01 "Hg5 mi
9:00 PM73 °FClear.9 mph69%29.98 "Hg5 mi
8:00 PM73 °FPassing clouds.9 mph69%29.98 "HgN/A
7:00 PM77 °FWarm.9 mph57%29.95 "HgN/A
6:00 PM79 °FWarm.10 mph54%29.95 "HgN/A
Weather by CustomWeather, © 2014

See weather overviewHow to use our weather pages